User: anonymous   Login
Location: Schommer Observatory
(40.5200°N, 74.4500°W)
Time: 06:13:31
(UTC-04:00)
Language:

N. Korean satellite - Orbit

View from above orbital plane
View from above orbital plane
View from above satellite
View from above satellite

Ground track
Ground track

The orbit data is extracted from the following two-line orbital elements,

1 39026U 12072A   18143.51201823  .00001588  00000-0  61832-4 0  9997
2 39026  97.2110 154.7171 0040771  52.4652 308.0281 15.26680571301895
Epoch (UTC): 23 May 2018 12:17:18
Eccentricity: 0.0040771
inclination: 97.2110°
perigee height: 458 km
apogee height: 514 km
right ascension of ascending node: 154.7171°
argument of perigee: 52.4652°
revolutions per day: 15.26680571
mean anomaly at epoch: 308.0281°
orbit number at epoch: 30189

The dashed part of the orbit path shows where the satellite is in the earth's shadow,  

DLR